TimePST,TemperatureF,Dew PointF,Humidity,Sea Level PressureIn,VisibilityMPH,Wind Direction,Wind SpeedMPH,Gust SpeedMPH,PrecipitationIn,Events,Conditions,WindDirDegrees,DateUTC
12:53 AM,53.1,46.9,80,29.99,5.0,Calm,Calm,-,N/A,,Haze,0,2014-02-16 08:53:00
1:53 AM,51.1,48.0,89,29.99,5.0,Calm,Calm,-,N/A,,Clear,0,2014-02-16 09:53:00
2:53 AM,50.0,46.0,86,29.98,5.0,Calm,Calm,-,N/A,,Clear,0,2014-02-16 10:53:00
3:53 AM,51.1,44.1,77,29.99,5.0,Calm,Calm,-,N/A,,Haze,0,2014-02-16 11:53:00
4:53 AM,51.1,44.1,77,29.99,5.0,ENE,3.5,-,N/A,,Haze,70,2014-02-16 12:53:00
5:53 AM,50.0,42.1,74,30.00,5.0,Calm,Calm,-,N/A,,Haze,0,2014-02-16 13:53:00
6:53 AM,48.0,42.1,80,30.02,10.0,Calm,Calm,-,N/A,,Mostly Cloudy,0,2014-02-16 14:53:00
7:53 AM,51.1,46.0,83,30.04,10.0,Calm,Calm,-,N/A,,Mostly Cloudy,0,2014-02-16 15:53:00
8:53 AM,60.1,44.1,55,30.05,10.0,SSW,3.5,-,N/A,,Mostly Cloudy,200,2014-02-16 16:53:00
9:53 AM,64.0,41.0,43,30.06,10.0,Calm,Calm,-,N/A,,Mostly Cloudy,0,2014-02-16 17:53:00
10:53 AM,70.0,39.0,32,30.04,10.0,Calm,Calm,-,N/A,,Mostly Cloudy,0,2014-02-16 18:53:00
11:53 AM,77.0,39.9,26,30.02,6.0,Calm,Calm,-,N/A,,Haze,0,2014-02-16 19:53:00
12:53 PM,78.1,44.1,30,29.99,7.0,WNW,8.1,-,N/A,,Mostly Cloudy,300,2014-02-16 20:53:00
1:53 PM,81.0,36.0,20,29.97,10.0,West,10.4,-,N/A,,Mostly Cloudy,270,2014-02-16 21:53:00
2:53 PM,79.0,39.9,25,29.96,10.0,West,8.1,-,N/A,,Mostly Cloudy,260,2014-02-16 22:53:00
3:53 PM,77.0,45.0,32,29.98,10.0,West,10.4,-,N/A,,Mostly Cloudy,260,2014-02-16 23:53:00
4:53 PM,73.0,46.0,38,29.99,10.0,West,9.2,-,N/A,,Mostly Cloudy,260,2014-02-17 00:53:00
5:53 PM,66.0,48.9,54,30.01,10.0,WNW,5.8,-,N/A,,Mostly Cloudy,300,2014-02-17 01:53:00
6:53 PM,61.0,48.0,62,30.03,10.0,WNW,4.6,-,N/A,,Mostly Cloudy,300,2014-02-17 02:53:00
7:53 PM,57.0,48.0,72,30.05,10.0,West,3.5,-,N/A,,Clear,270,2014-02-17 03:53:00
8:53 PM,55.9,48.9,77,30.06,7.0,Calm,Calm,-,N/A,,Clear,0,2014-02-17 04:53:00
9:53 PM,54.0,48.0,80,30.08,7.0,Calm,Calm,-,N/A,,Clear,0,2014-02-17 05:53:00
10:53 PM,52.0,46.9,83,30.09,6.0,NNE,3.5,-,N/A,,Haze,30,2014-02-17 06:53:00
11:53 PM,51.1,48.0,89,30.08,6.0,Calm,Calm,-,N/A,,Clear,0,2014-02-17 07:53:00